Location: Anciles
(42.5833°N, 0.5167°E)
Time: 08:30:28
(UTC+00:00)

Cosmos 1743 - Pass Details

Date: 10 December 2019
Orbit: 511 x 527 km, 82.6° (Epoch: 24 January)

Event Time Altitude Azimuth Distance (km) Brightness Sun altitude
Rises 17:22:35 0° 8° (N) 2,656 6.0 -10.4°
Reaches altitude 10° 17:25:18 10° 28° (NNE) 1,766 5.0 -10.9°
Maximum altitude 17:27:58 18° 72° (ENE) 1,345 4.1 -11.3°
Drops below altitude 10° 17:30:38 10° 116° (ESE) 1,762 5.0 -11.8°
Sets 17:33:20 0° 136° (SE) 2,647 6.1 -12.3°
